www.pogodaiklimat.ru

Погода и климат >> Архив погоды >> Россия >> Новосибирская область >> Новосибирск


АРХИВ ПОГОДЫ в Новосибирске

Время (UTC), дата Ветер
(напр.,м/с)
 
Видим.   Явления Облачность Т
(С)
Тd
(С)
f
(%)
Тe
(С)
Тes
(С)
Комфортность P
(гПа)
Po
(гПа)
Тmin
(С)
Tmax
(С)
R
(мм)
R24
(мм)
S
(см)
09 8.11 Ю 6-10
{14}
25 км 10/10 600 м
[Cb cap]
+0.8 -1.3 86 -6 -6 1005.6 989.2
12 8.11 Ю 6-11
{14}
20 км в посл. час ливневой дождь 10/10 600 м
[Cb cap]
+0.8 -1.4 85 -6 -6 1003.0 986.7 +0.8 0.0
15 8.11 Ю 6-11
{15}
1000 м ливневой снег {метель} 10/10 600 м
[Cb cap]
+0.2 -1.7 87 -6 -6 1000.2 983.9
18 8.11 ЮЗ 7-15
{15}
2000 м слабый ливневой снег {метель} 10/10 600 м
[Cb cap]
+0.4 -0.6 93 -7 -7 998.0 981.7
21 8.11 ЮЗ 7-11
{15}
2000 м слабый ливневой снег 10/10 600 м
[Cb cap]
+0.4 -0.7 92 -7 -7 997.0 980.7
00 9.11 З 6-11
{15}
1000 м слабый ливневой снег 10/10 600 м
[Cb cap]
-2.2 -3.5 91 -9 -9 998.8 982.3 -2.2 2 9
03 9.11 З 6-10
{15}
17 км позёмок {ливн. осадки, метель} 10/8 600 м
[Cb cap Ac trans]
-11.1 -13.9 80 -20 -20 1006.5 989.3 -11.1
06 9.11 З 5
{11}
13 км слабый ливневой снег {метель} 10/6 600 м
[Cb cap Ci fib]
-12.2 -15.6 76 -20 -20 1011.8 994.5
09 9.11 З 5
{10}
18 км слабый ливневой снег {метель} 8/8 600 м
[Cb cap]
-13.6 -17.8 71 -22 -22 1016.8 999.3
12 9.11 З 3 20 км {ливн. осадки, метель} 1/1 600 м
[Sc]
-17.9 -21.8 71 -25 -25 1022.1 1004.2 -2.2 0.2
15 9.11 ЮЗ 1 20 км 1/1 600 м
[Sc]
-20.8 -24.0 75 -24 -24 1025.2 1007.1
18 9.11 ЮЗ 2 20 км 3/1 1000 м
[Sc Ci fib]
-22.3 -25.0 79 -29 -29 1027.2 1008.9
21 9.11 З 2 20 км 3/0
[Ci fib]
-21.6 -24.3 79 -28 -28 1027.9 1009.6
00 10.11 ЮЗ 2 4000 м слабый снег 8/8 600 м
[Sc]
-19.8 -22.4 80 -26 -26 1028.4 1010.3 -22.5 0.0 9
03 10.11 штиль 0 18 км {снег} 4/4 600 м
[Cb cap]
-22.3 -24.9 79 -22 -22 1029.9 1011.5
06 10.11 ЮЗ 2 20 км {снег} 8/4 1500 м
[Sc Ac trans]
-18.5 -21.3 79 -24 -23 1030.3 1012.3
09 10.11 З 2 23 км 3/3 1000 м
[Sc]
-18.1 -21.4 75 -24 -23 1030.7 1012.6
12 10.11 З 1 20 км 3/3 1000 м
[Sc]
-22.0 -24.7 79 -25 -25 1031.2 1012.8 -17.6 0.0
15 10.11 З 1 20 км 1/1 1000 м
[Sc diur, vesp]
-21.6 -24.1 80 -25 -25 1031.2 1012.9
18 10.11 ЮЗ 1 20 км 3/1 1000 м
[Sc Ci fib]
-22.4 -24.9 80 -26 -26 1031.5 1013.1
21 10.11 З 1 4000 м слабый снег 10/3 600 м
[Sc Ci fib]
-21.1 -23.6 80 -24 -24 1031.0 1012.7
00 11.11 ЮЗ 2 4000 м слабый ливневой снег 9/9 600 м
[Cb cap]
-20.1 -22.5 81 -26 -26 1031.9 1013.7 -23.0 0.0 10
03 11.11 Ю 2 8000 м слабый ливневой снег 10/10 600 м
[Cb cap]
-19.6 -22.1 80 -25 -25 1033.4 1015.2
06 11.11 Ю 2 18 км {ливн. осадки} 8/6 1000 м
[Cb cap Ci fib]
-17.4 -21.3 72 -23 -22 1034.1 1016.0
09 11.11 Ю 2 19 км {ливн. осадки} 8/4 600 м
[Cb cap Ci fib]
-16.4 -20.4 71 -22 -21 1034.4 1016.3
12 11.11 Ю 2 4000 м слабый ливневой снег 8/8 600 м
[Cb cap]
-20.3 -23.6 75 -26 -26 1035.1 1016.8 -16.3 0.0
15 11.11 Ю 2 4000 м слабый ливневой снег 10/10 600 м
[Cb cap]
-16.6 -19.4 79 -22 -22 1035.2 1017.2
18 11.11 Ю 2 20 км {ливн. осадки} 10/10 600 м
[Cb cap]
-17.6 -20.2 80 -23 -23 1035.1 1017.0
21 11.11 Ю 2 4000 м слабый ливневой снег 9/9 600 м
[Cb cap]
-18.0 -20.5 81 -23 -23 1035.1 1016.9
00 12.11 Ю 2 4000 м слабый ливневой снег 10/10 600 м
[Cb cap]
-18.9 -21.2 82 -25 -25 1034.6 1016.4 -20.3 0.1 11
03 12.11 Ю 3 17 км {ливн. осадки} 8/4 600 м
[Cb cap Ci fib]
-18.6 -20.8 83 -26 -26 1034.8 1016.6
06 12.11 Ю 5
{10}
21 км в посл. час ливневой снег {метель} 10/6 600 м
[Cb cap Ci fib]
-15.2 -18.3 77 -24 -24 1033.4 1015.5
09 12.11 Ю 7-11
{11}
8000 м слабый снег {метель} 10/10 1000 м
[Sc]
-14.4 -17.6 77 -25 -25 1031.0 1013.2
12 12.11 Ю 7-12
{14}
2000 м слабый ливневой снег 10/10 600 м
[Cb cap]
-13.3 -16.0 80 -23 -23 1029.4 1011.7 -13.3 0.5
15 12.11 Ю 7-13
{13}
1000 м ливневой снег {метель} 10/10 600 м
[Cb cap]
-12.2 -14.3 84 -22 -22 1028.1 1010.5
18 12.11 ЮЗ 6-10
{14}
4000 м слабый ливневой снег {метель} 10/10 600 м
[Cb cap]
-9.4 -11.8 83 -18 -18 1027.0 1009.6
21 12.11 ЮЗ 5
{11}
1000 м ливневой снег {метель} 10/10 600 м
[Cb cap]
-8.8 -11.2 83 -16 -16 1027.1 1009.8
00 13.11 ЮЗ 5
{11}
4000 м слабый ливневой снег {метель} 10/10 600 м
[Cb cap]
-8.9 -11.5 81 -17 -17 1027.8 1010.4 -13.3 2 12
03 13.11 ЮЗ 4
{10}
4100 м ливневой снег {метель} 10/10 600 м
[Cb cap]
-9.0 -11.6 81 -16 -16 1028.9 1011.5
06 13.11 ЮЗ 4 1700 м ливневой снег 10/8 300 м
[Cb cap Cs]
-8.7 -11.3 81 -16 -15 1030.2 1012.8
09 13.11 ЮЗ 4 14 км слабый ливневой снег {метель} 10/8 300 м
[Cb cap Cs]
-8.3 -11.7 76 -15 -15 1031.3 1013.9
12 13.11 ЮЗ 3 4000 м слабый ливневой снег {метель} 10/10 600 м
[Cb cap]
-8.6 -11.4 80 -14 -14 1033.3 1016.0 -8.1 0.4
15 13.11 ЮЗ 3 4000 м слабый ливневой снег 10/10 600 м
[Cb cap]
-9.4 -12.1 81 -15 -15 1035.0 1017.4
18 13.11 ЮЗ 4 4000 м слабый ливневой снег 10/10 600 м
[Cb cap]
-9.5 -12.2 81 -16 -16 1036.0 1018.4
21 13.11 Ю 5 4000 м слабый ливневой снег 10/10 600 м
[Cb cap]
-9.4 -11.6 84 -17 -17 1036.6 1019.1
00 14.11 Ю 4 4000 м слабый ливневой снег 10/10 600 м
[Cb cap]
-9.8 -12.0 84 -17 -17 1037.3 1019.7 -9.8 0.0 10
03 14.11 Ю 4 4000 м ливневой снег 10/10 600 м
[Cb cap]
-9.8 -11.7 86 -17 -17 1037.6 1020.0 -10.1
06 14.11 Ю 5 4200 м ливневой снег 10/10 600 м
[Cb cap]
-8.3 -11.0 81 -16 -16 1037.3 1019.8
09 14.11 Ю 5 4400 м слабый ливневой снег 10/10 600 м
[Cb cap]
-7.6 -10.1 82 -15 -15 1036.3 1018.9
12 14.11 Ю 7-12
{13}
4000 м слабый ливневой снег {метель} 10/10 600 м
[Cb cap]
-7.5 -10.2 81 -16 -16 1035.8 1018.3 -7.3 0.2
15 14.11 Ю 8-12
{13}
4000 м слабый ливневой снег {метель} 10/10 600 м
[Cb cap]
-7.8 -10.3 82 -17 -17 1034.3 1016.9
18 14.11 Ю 8-13
{14}
4000 м слабый ливневой снег {метель} 10/10 600 м
[Cb cap]
-7.8 -10.3 82 -17 -17 1032.7 1015.3
21 14.11 Ю 6-10
{13}
4000 м слабый ливневой снег {метель} 10/10 600 м
[Cb cap]
-7.8 -10.2 83 -16 -16 1031.0 1013.6
00 15.11 Ю 6-10
{13}
4000 м слабый ливневой снег {метель} 10/10 600 м
[Cb cap]
-7.7 -10.2 82 -16 -16 1028.5 1011.2 -7.9 0.0 12
03 15.11 ЮЗ 5-10
{11}
18 км позёмок {ливн. осадки, метель} 10/10 600 м
[Cb cap]
-7.9 -11.0 78 -15 -15 1028.8 1011.5 -8.4

 

Местоположение метеостанции Новосибирск (Новосибирская область, Россия): широта 54.90 долгота 82.95 высота над уровнем моря 131 м.

В архиве по умолчанию представлена погода в Новосибирске за последнюю неделю. Архивные данные за месяц целиком и за предыдущие месяцы, начиная с января 2011 года, Вы можете получить, выбрав интересующий диапазон дат из раскрывающегося списка и нажав кнопку "Ввод!".


*Определитесь, кто Вы:
робот инопланетянин человек

Внимание! Время в таблицах - всемирное. Для получения местного времени необходимо прибавить поправку, которая в Новосибирске равна 7 ч.

Смотрите также архив погоды в соседних городах и на ближайших метеорологических станциях:

Погода в Обской ГМО (Новосибирская область, Россия) (6 км)
Погода в Учебной (Новосибирская область, Россия) (8 км)
Погода в Новосибирск планетарии (Новосибирская область, Россия) (10 км)
Погода в Новом (Новосибирская область, Россия) (17 км)
Погода в Искитиме (Новосибирская область, Россия) (37 км)
Погода в Коченево (Новосибирская область, Россия) (48 км)
Погода в Колывани (Новосибирская область, Россия) (49 км)
Погода в Мошково (Новосибирская область, Россия) (62 км)
Погода в Дальнем (Новосибирская область, Россия) (65 км)
Погода в Посевной (Новосибирская область, Россия) (71 км)

Пояснения к столбцам:

Ветер - указаны скорость ветра в м/с - средняя за 10 мин, порывы в срок и между сроками (в фигурных скобках) и направление, откуда дует ветер: С - северный, СВ - северо-восточный, В - восточный, ЮВ - юго-восточный, Ю - южный, ЮЗ - юго-западный, З - западный, СЗ - северо-западный.
Видимость - горизонтальная дальность видимости в метрах или километрах. При видимости от 1 до 10 км при отсутствии осадков обычно наблюдается дымка, при ухудшении видимости до 1 км и менее - туман. В сухую погоду видимость может ухудшаться дымом, пылью или мглою.
Явления - указаны атмосферные явления, наблюдавшиеся в срок или в последний час перед сроком; фигурными скобками обозначены явления, наблюдавшиеся между сроками (за 1-3 часа до срока); квадратными скобками обозначены град или гололедные отложения с указанием их диаметра в мм.
Облачность - указаны через наклонную черту общая и нижняя облачность в баллах и высота нижней границы облаков в метрах; квадратными скобками обозначены формы облаков: Ci - перистые, Cs - перисто-слоистые, Cc - перисто-кучевые, Ac - высококучевые, As - высокослоистые, Sc - слоисто-кучевые, Ns - слоисто-дождевые, Cu - кучевые, Cb - кучево-дождевые. Подробнее классификацию облаков см. в Атласе облаков (PDF).
T - Температура воздуха - температура, измеренная на высоте 2 м над землей.
Td - Температура точки росы - температура, при понижении до которой содержащийся в воздухе водяной пар достигнет насыщения.
f - Относительная влажность воздуха - влажноcть воздуха, измеренная на высоте 2 м над землей.
Te - Эффективная температура - температура, которую ощущает одетый по сезону человек в тени. Характеристика душности погоды. При расчете учитывается влияние влажности воздуха и скорости ветра на теплоощущения человека.
Tes - Эффективная температура на солнце - температура, которую ощущает человек, с поправкой на солнечный нагрев. Характеристика знойности погоды. Зависит от высоты солнца над горизонтом, облачности и скорости ветра. Ночью, в пасмурную погоду, а также при ветре 12 м/с и более поправка равна нулю.
P - Атмосферное давление - приведенное к уровню моря атмосферное давление.
Po - Атмосферное давление - измеренное на уровне метеостанции атмосферное давление.
Tmin - Минимальная температура - минимум температуры воздуха на высоте 2 м над землей.
Tmax - Максимальная температура - максимум температуры воздуха на высоте 2 м над землей.
R - Количество осадков - Количество выпавших осадков за период времени, мм. При наведении курсора мыши на число - период времени, за который выпало указанное количество осадков.
R24 - Количество осадков - Количество выпавших осадков за 24 часа, мм.
S - Снежный покров - Высота снежного покрова, см. При наведении курсора мыши на число - состояние снежного покрова и степень покрытия местности в баллах.